[[{"header":{"parameterUnit":"m.s-1","parameterCategory":1,"la1":30.2992,"la2":30.254,"lo1":-89.0895,"lo2":-89.0443,"dy":0.0025,"dx":0.0025,"nx":19,"ny":19,"refTime":"2026-04-06T21:00:00:Z","depth":0,"parameterNumber":2,"parameterNumberName":"U-component_of_WINDS"},"data":[0,0,0,-3.1683,-3.1688,-3.1936,-3.1938,-3.2236,-3.2239,0,0,0,0,0,0,0,0,0,0,0,-3.1596,-3.1597,-3.1683,-3.1689,-3.1936,-3.1938,-3.2236,-3.2239,0,0,0,0,0,0,0,0,0,0,0,-3.1595,-3.1597,-3.1599,-3.169,-3.1936,-3.1938,-3.2235,-3.2055,0,0,0,0,0,0,0,0,0,0,-3.1818,-3.1723,-3.1597,-3.1599,-3.1691,-3.1936,-3.1938,-3.2047,-3.2067,-3.2115,0,-3.2152,0,-3.22,-3.2257,-3.2258,0,0,0,-3.17,-3.1706,-3.1786,-3.1599,-3.1693,-3.1935,-3.1828,-3.2058,-3.208,-3.2141,-3.2157,-3.2169,-3.2205,-3.2259,-3.2261,-3.2499,-3.25,0,0,-3.1686,-3.1634,-3.177,-3.1799,-3.1757,-3.182,-3.1835,-3.2072,-3.2087,-3.2158,-3.2176,-3.221,-3.2261,-3.2263,-3.2499,-3.25,0,0,0,-3.1639,-3.1623,-3.1698,-3.1786,-3.1832,-3.1827,-3.1845,-3.2076,-3.2105,-3.2179,-3.2213,-3.2263,-3.2266,-3.2498,-3.2499,-3.2476,0,0,0,-3.1632,-3.1596,-3.1691,-3.1661,-3.1828,-3.1957,-3.1843,-3.2088,-3.2117,-3.2212,-3.2263,-3.2269,-3.2498,-3.2499,-3.2475,-3.2472,0,0,0,-3.1585,-3.1591,-3.1622,-3.1658,-3.1762,-3.1954,-3.1997,-3.2095,-3.2137,-3.2259,-3.2269,-3.2497,-3.2499,-3.2474,-3.2472,-3.2519,0,0,0,-3.152,-3.1598,-3.1621,-3.1722,-3.176,-3.1938,-3.1996,-3.2131,-3.2233,-3.2264,-3.2498,-3.2499,-3.2474,-3.2471,-3.2518,-3.2547,-3.2554,0,0,-3.159,-3.1605,-3.1669,-3.1696,-3.1856,-3.1904,-3.2062,-3.2206,-3.2268,-3.2419,-3.2426,-3.2475,-3.2472,-3.2519,-3.2621,-3.2626,0,0,0,-3.1673,-3.1718,-3.1773,-3.1866,-3.1977,-3.2073,-3.2198,-3.2253,-3.2384,-3.2334,-3.2508,-3.2508,-3.2537,-3.2554,-3.2558,-3.2587,-3.2505,-3.2505,-3.2505,-3.1694,-3.1768,-3.1879,-3.1983,-3.2073,-3.2203,-3.2284,-3.2379,-3.2428,-3.2468,-3.2512,-3.2565,-3.2582,-3.2586,-3.2615,-3.2536,-3.2536,-3.2536,-3.2536,-3.1802,-3.1876,-3.194,-3.207,-3.2149,-3.226,-3.239,-3.2421,-3.2538,-3.2537,-3.2567,-3.2557,-3.2589,-3.2619,-3.2535,-3.2535,-3.2535,-3.2535,-3.2535,-3.1821,-3.1869,-3.1934,-3.2077,-3.2181,-3.2286,-3.2395,-3.2464,-3.253,-3.256,-3.2614,-3.2615,-3.2622,-3.2582,-3.2582,-3.2582,-3.2582,-3.2582,-3.2582,-3.1814,-3.1887,-3.1969,-3.2095,-3.2165,-3.2267,-3.2401,-3.2473,-3.257,-3.2612,-3.2613,-3.2657,-3.258,-3.2557,-3.2585,-3.2585,-3.2584,-3.2584,-3.2584,-3.189,-3.1884,-3.2009,-3.2079,-3.2235,-3.2334,-3.2422,-3.2563,-3.2634,-3.2685,-3.2726,-3.2658,-3.2678,-3.2675,-3.2657,-3.2709,-3.2709,-3.2709,-3.271,-3.1903,-3.1922,-3.2066,-3.2174,-3.2288,-3.2381,-3.2524,-3.2631,-3.274,-3.2789,-3.2793,-3.2776,-3.2769,-3.2794,-3.2788,-3.2772,-3.2853,-3.2853,-3.2853,-3.1954,-3.1986,-3.2091,-3.2197,-3.2325,-3.2434,-3.2571,-3.2695,-3.2819,-3.2861,-3.2829,-3.2823,-3.2796,-3.2784,-3.2819,-3.2809,-3.2781,0,0]},{"header":{"parameterUnit":"m.s-1","parameterCategory":1,"la1":30.2992,"la2":30.254,"lo1":-89.0895,"lo2":-89.0443,"dy":0.0025,"dx":0.0025,"nx":19,"ny":19,"refTime":"2026-04-06T21:00:00:Z","depth":0,"parameterNumber":3,"parameterNumberName":"V-component_of_WINDS"},"data":[0,0,0,-1.6413,-1.6417,-1.6641,-1.6642,-1.6901,-1.6903,0,0,0,0,0,0,0,0,0,0,0,-1.633,-1.6331,-1.6412,-1.6418,-1.6641,-1.6642,-1.6901,-1.6903,0,0,0,0,0,0,0,0,0,0,0,-1.6329,-1.6331,-1.6332,-1.6418,-1.664,-1.6642,-1.69,-1.6741,0,0,0,0,0,0,0,0,0,0,-1.6529,-1.6436,-1.6331,-1.6332,-1.6419,-1.664,-1.6642,-1.6734,-1.6751,-1.6789,0,-1.6817,0,-1.6864,-1.6919,-1.692,0,0,0,-1.643,-1.6422,-1.6497,-1.6333,-1.6421,-1.664,-1.6544,-1.6744,-1.6763,-1.6811,-1.6821,-1.6831,-1.6868,-1.692,-1.6922,-1.7093,-1.7094,0,0,-1.6418,-1.6361,-1.6483,-1.6508,-1.6472,-1.6536,-1.655,-1.6756,-1.6763,-1.6822,-1.6838,-1.6872,-1.6922,-1.6924,-1.7093,-1.7093,0,0,0,-1.6374,-1.6352,-1.6423,-1.6497,-1.6539,-1.6542,-1.6559,-1.6754,-1.6782,-1.6841,-1.6875,-1.6923,-1.6926,-1.7093,-1.7093,-1.7049,0,0,0,-1.6367,-1.6327,-1.6417,-1.6385,-1.6535,-1.6649,-1.6551,-1.6767,-1.6793,-1.6874,-1.6923,-1.6928,-1.7093,-1.7093,-1.705,-1.7037,0,0,0,-1.6321,-1.6322,-1.6348,-1.6381,-1.6475,-1.6647,-1.6687,-1.6774,-1.6813,-1.692,-1.6929,-1.7093,-1.7093,-1.7051,-1.7039,-1.7066,0,0,0,-1.6256,-1.6306,-1.6346,-1.6415,-1.6473,-1.6618,-1.6687,-1.6798,-1.6884,-1.6925,-1.7093,-1.7093,-1.7051,-1.704,-1.7067,-1.7079,-1.7079,0,0,-1.6287,-1.6307,-1.6352,-1.6396,-1.6518,-1.6588,-1.6706,-1.6838,-1.69,-1.7026,-1.7031,-1.7049,-1.7039,-1.7066,-1.7098,-1.7097,0,0,0,-1.6343,-1.6375,-1.642,-1.6499,-1.6601,-1.6688,-1.6808,-1.6858,-1.6967,-1.6953,-1.7069,-1.7064,-1.7083,-1.7091,-1.7091,-1.711,-1.7095,-1.7095,-1.7095,-1.6306,-1.6383,-1.6463,-1.6566,-1.6642,-1.6766,-1.6835,-1.6922,-1.6978,-1.7003,-1.7041,-1.7051,-1.7059,-1.7059,-1.7078,-1.7054,-1.7054,-1.7054,-1.7054,-1.6359,-1.6416,-1.6488,-1.6591,-1.6672,-1.676,-1.6882,-1.6918,-1.7012,-1.7029,-1.7049,-1.706,-1.7056,-1.7077,-1.7051,-1.7052,-1.7052,-1.7052,-1.7052,-1.6344,-1.6384,-1.6443,-1.6566,-1.6652,-1.6755,-1.6842,-1.6913,-1.698,-1.7,-1.7047,-1.7048,-1.7058,-1.7017,-1.7017,-1.7017,-1.7018,-1.7018,-1.7018,-1.6304,-1.6372,-1.6436,-1.6549,-1.6609,-1.6698,-1.6823,-1.6884,-1.6971,-1.7016,-1.7016,-1.7069,-1.7041,-1.7032,-1.7018,-1.7018,-1.7018,-1.7018,-1.7018,-1.633,-1.6335,-1.6434,-1.6494,-1.6633,-1.6714,-1.6803,-1.6922,-1.6984,-1.7024,-1.7073,-1.7041,-1.7067,-1.7068,-1.7061,-1.7056,-1.7056,-1.7056,-1.7056,-1.6316,-1.6336,-1.6454,-1.6546,-1.6644,-1.6734,-1.6845,-1.6943,-1.7045,-1.7088,-1.7099,-1.7096,-1.7094,-1.7121,-1.7121,-1.7116,-1.7125,-1.7125,-1.7126,-1.6337,-1.6369,-1.6449,-1.6549,-1.6662,-1.6758,-1.6864,-1.6968,-1.7085,-1.713,-1.7123,-1.712,-1.7117,-1.7112,-1.7156,-1.7154,-1.7146,0,0]}]]